Regional Weather Roundup
Issued by NWS Nashville, TN

Home | Current Version | Previous Version | Text Only | Print | Product List | Glossary On
Versions: 1 2 3 4 5 6 7 8 9 10 11 12 13 14 15 16 17 18 19 20 21 22 23 24 25 26 27
000
ASUS44 KOHX 291210
RWROHX
MIDDLE TENNESSEE HOURLY WEATHER ROUNDUP
NATIONAL WEATHER SERVICE NASHVILLE TN
700 AM CDT THU JUN 29 2017

NOTE: "FAIR" INDICATES FEW OR NO CLOUDS BELOW 12,000 FEET WITH
NO SIGNIFICANT WEATHER AND/OR OBSTRUCTIONS TO VISIBILITY.

* THESE REPORTS ARE NOT UNDER NWS QUALITY CONTROL AND MAY NOT
  REPORT WEATHER SUCH AS PRECIPITATION AND FOG.


TNZ005>011-023>034-057-059-062>066-078-080-291300
...NORTHERN MIDDLE TENNESSEE...

CITY           SKY/WX    TMP DP  RH WIND       PRES   REMARKS
CLARKSVILLE    SUNNY     70  64  81 S5        30.06S
CROSSVILLE     SUNNY     69  63  81 VRB7      30.18S
GALLATIN       CLOUDY    70  64  83 CALM      30.12R
DICKSON        SUNNY     70  65  84 S7        30.07R
NASHVILLE      PTSUNNY   73  65  75 SE3       30.09R
PORTLAND       MOSUNNY   72  64  78 S8        30.09R
SMYRNA         PTSUNNY   71  66  84 SE3       30.10R
SPARTA         CLOUDY    72  64  78 S6        30.12S
SPRINGFIELD    SUNNY     72  66  83 VRB3      30.07R
WEST NASHVILLE MOSUNNY   70  66  88 CALM      30.06R
$$
TNZ056-058-060-061-075>077-079-093>097-291300
...SOUTHERN MIDDLE TENNESSEE...

CITY           SKY/WX    TMP DP  RH WIND       PRES   REMARKS
COLUMBIA       SUNNY     72  70  94 CALM      30.06S
FAYETTEVILLE   PTSUNNY   73  66  78 S9        30.10S
MCMINNVILLE    MOSUNNY   75  70  83 CALM      30.12S
MURFREESBORO   MOSUNNY   73  64  73 CALM      30.09R
PULASKI        SUNNY     72  68  88 CALM      30.09S
SHELBYVILLE    CLOUDY    70  66  88 CALM      30.11R
TULLAHOMA      SUNNY     72  64  78 S7        30.13R
WINCHESTER     MOSUNNY   73  66  78 SE8       30.13R
$$


...KEY TO REMARKS...
VSB - VISIBILITY IN MILES
WCI - WIND CHILL INDEX
HX  - HEAT INDEX





USA.gov is the U.S. government's official web portal to all federal, state and local government web resources and services.